Weather History for KIFP - October, 2013

Change the Weather History Date:

Monday, October 7, 2013

  Actual Average Record
Temperature  
Mean Temperature 72 °F -  
Max Temperature 86 °F 91 °F 105 °F (1991)
Min Temperature 57 °F 68 °F 57 °F (1989)
Cooling Degree Days 6    
Growing Degree Days 22 (Base 50)    
Moisture  
Dew Point 25 °F    
Average Humidity 19    
Maximum Humidity 38    
Minimum Humidity 9    
Precipitation  
Precipitation 0.00 in - - ()
Sea Level Pressure  
Sea Level Pressure 29.93 in    
Wind  
Wind Speed 2 mph (South)    
Max Wind Speed 7 mph    
Max Gust Speed -    
Visibility 10 miles    
Events      
Averages and records for this station are not official NWS values.
T = Trace of Precipitation, MM = Missing Value Source: NWS Daily Summary

Daily Weather History Graph

Daily Weather History Graph

Search for Another Location

Airport or City:

Trip Planner

Search our weather history database for the weather conditions in past years. The results will help you decide how hot, cold, wet, or windy it might be!

Date:

Astronomy

Oct. 07, 2013 Rise Set
Actual Time 6:38 AM MST 6:13 PM MST
Civil Twilight 6:12 AM MST 6:38 PM MST
Nautical Twilight 5:43 AM MST 7:08 PM MST
Astronomical Twilight 5:13 AM MST 7:37 PM MST
Moon 9:25 AM MST (10/7) 8:09 PM MST (10/7)
Length of Visible Light 12h 26m
Length of Day
11h 35m
Waxing Crescent, 9% of the Moon is Illuminated
Oct 7
Waxing Crescent
Oct 11
First Quarter
Oct 18
Full
Oct 26
Last Quarter
Nov 3
New

Hourly Weather History & Observations

Time (MST) Temp. Dew Point Humidity Pressure Visibility Wind Dir Wind Speed Gust Speed Precip Events Conditions
12:15 AM 68.0 °F 23.0 °F 18% 30.01 in 10.0 mi ENE 4.6 mph - N/A   Clear
12:35 AM 66.2 °F 23.0 °F 19% 30.02 in 10.0 mi Calm Calm - N/A   Clear
12:55 AM 66.2 °F 24.8 °F 21% 30.02 in 10.0 mi Calm Calm - N/A   Clear
1:15 AM 66.2 °F 24.8 °F 21% 30.02 in 10.0 mi Calm Calm - N/A   Clear
1:35 AM 64.4 °F 24.8 °F 22% 30.01 in 10.0 mi Calm Calm - N/A   Clear
1:55 AM 62.6 °F 23.0 °F 22% 30.01 in 10.0 mi Calm Calm - N/A   Clear
2:15 AM 62.6 °F 23.0 °F 22% 30.00 in 10.0 mi Calm Calm - N/A   Clear
2:35 AM 62.6 °F 23.0 °F 22% 30.00 in 10.0 mi Calm Calm - N/A   Clear
2:55 AM 60.8 °F 24.8 °F 25% 30.00 in 10.0 mi Calm Calm - N/A   Clear
3:15 AM 62.6 °F 26.6 °F 26% 30.00 in 10.0 mi Calm Calm - N/A   Clear
3:35 AM 62.6 °F 24.8 °F 24% 29.99 in 10.0 mi Calm Calm - N/A   Clear
3:55 AM 62.6 °F 24.8 °F 24% 29.99 in 10.0 mi Calm Calm - N/A   Clear
4:15 AM 59.0 °F 24.8 °F 27% 29.99 in 10.0 mi Calm Calm - N/A   Clear
4:35 AM 59.0 °F 24.8 °F 27% 29.99 in 10.0 mi Calm Calm - N/A   Clear
4:55 AM 59.0 °F 24.8 °F 27% 29.99 in 10.0 mi Calm Calm - N/A   Clear
5:15 AM 57.2 °F 24.8 °F 29% 29.99 in 10.0 mi ESE 4.6 mph - N/A   Clear
5:35 AM 57.2 °F 28.4 °F 33% 29.99 in 10.0 mi ESE 4.6 mph - N/A   Clear
5:55 AM 57.2 °F 28.4 °F 33% 30.00 in 10.0 mi Calm Calm - N/A   Clear
6:15 AM 57.2 °F 28.4 °F 33% 30.00 in 10.0 mi Calm Calm - N/A   Clear
6:35 AM 57.2 °F 26.6 °F 31% 30.00 in 10.0 mi Calm Calm - N/A   Clear
6:55 AM 57.2 °F 32.0 °F 38% 30.00 in 10.0 mi Calm Calm - N/A   Clear
7:15 AM 57.2 °F 26.6 °F 31% 30.00 in 10.0 mi Calm Calm - N/A   Clear
7:35 AM 59.0 °F 26.6 °F 29% 30.01 in 10.0 mi Calm Calm - N/A   Clear
7:55 AM 60.8 °F 28.4 °F 29% 30.02 in 10.0 mi Calm Calm - N/A   Clear
8:15 AM 60.8 °F 30.2 °F 31% 30.02 in 10.0 mi Calm Calm - N/A   Clear
8:35 AM 62.6 °F 30.2 °F 30% 30.02 in 10.0 mi Calm Calm - N/A   Clear
8:55 AM 64.4 °F 26.6 °F 24% 30.02 in 10.0 mi Calm Calm - N/A   Clear
9:15 AM 64.4 °F 26.6 °F 24% 30.02 in 10.0 mi Calm Calm - N/A   Clear
9:35 AM 66.2 °F 26.6 °F 23% 30.01 in 10.0 mi Calm Calm - N/A   Clear
9:55 AM 68.0 °F 26.6 °F 21% 30.02 in 10.0 mi SW 3.5 mph - N/A   Clear
10:15 AM 71.6 °F 24.8 °F 17% 30.01 in 10.0 mi Calm Calm - N/A   Clear
10:35 AM 73.4 °F 24.8 °F 16% 30.01 in 10.0 mi Calm Calm - N/A   Clear
10:55 AM 73.4 °F 24.8 °F 16% 30.01 in 10.0 mi Calm Calm - N/A   Clear
11:15 AM 75.2 °F 24.8 °F 15% 30.00 in 10.0 mi Calm Calm - N/A   Clear
11:35 AM 75.2 °F 24.8 °F 15% 29.99 in 10.0 mi Calm Calm - N/A   Clear
11:55 AM 77.0 °F 24.8 °F 14% 29.98 in 10.0 mi Calm Calm - N/A   Clear
12:15 PM 77.0 °F 24.8 °F 14% 29.97 in 10.0 mi Calm Calm - N/A   Clear
12:35 PM 80.6 °F 24.8 °F 13% 29.96 in 10.0 mi NW 4.6 mph - N/A   Clear
12:55 PM 80.6 °F 24.8 °F 13% 29.95 in 10.0 mi West 3.5 mph - N/A   Clear
1:15 PM 82.4 °F 23.0 °F 11% 29.93 in 10.0 mi Calm Calm - N/A   Clear
1:35 PM 84.2 °F 23.0 °F 11% 29.92 in 10.0 mi West 3.5 mph - N/A   Clear
1:55 PM 84.2 °F 21.2 °F 10% 29.91 in 10.0 mi Calm Calm - N/A   Clear
2:15 PM 84.2 °F 21.2 °F 10% 29.90 in 10.0 mi SSW 4.6 mph - N/A   Clear
2:35 PM 86.0 °F 21.2 °F 9% 29.89 in 10.0 mi SW 5.8 mph - N/A   Clear
2:55 PM 86.0 °F 19.4 °F 9% 29.88 in 10.0 mi SW 6.9 mph - N/A   Clear
3:15 PM 86.0 °F 19.4 °F 9% 29.88 in 10.0 mi WSW 5.8 mph - N/A   Clear
3:35 PM 86.0 °F 21.2 °F 9% 29.87 in 10.0 mi SW 5.8 mph - N/A   Clear
3:55 PM 86.0 °F 23.0 °F 10% 29.87 in 10.0 mi SW 4.6 mph - N/A   Clear
4:15 PM 86.0 °F 23.0 °F 10% 29.86 in 10.0 mi SW 3.5 mph - N/A   Clear
4:35 PM 86.0 °F 24.8 °F 11% 29.86 in 10.0 mi SW 4.6 mph - N/A   Clear
4:55 PM 86.0 °F 24.8 °F 11% 29.85 in 10.0 mi Calm Calm - N/A   Clear
5:15 PM 86.0 °F 24.8 °F 11% 29.85 in 10.0 mi Calm Calm - N/A   Clear
5:35 PM 86.0 °F 24.8 °F 11% 29.84 in 10.0 mi SW 3.5 mph - N/A   Clear
5:55 PM 86.0 °F 24.8 °F 11% 29.84 in 10.0 mi Calm Calm - N/A   Clear
6:15 PM 84.2 °F 24.8 °F 11% 29.83 in 10.0 mi Calm Calm - N/A   Clear
6:35 PM 80.6 °F 26.6 °F 14% 29.83 in 10.0 mi Calm Calm - N/A   Clear
6:55 PM 77.0 °F 26.6 °F 16% 29.83 in 10.0 mi ESE 4.6 mph - N/A   Clear
7:15 PM 77.0 °F 26.6 °F 16% 29.83 in 10.0 mi ESE 5.8 mph - N/A   Clear
7:35 PM 75.2 °F 26.6 °F 17% 29.83 in 10.0 mi ESE 6.9 mph - N/A   Clear
7:55 PM 75.2 °F 26.6 °F 17% 29.83 in 10.0 mi ESE 6.9 mph - N/A   Clear
8:15 PM 73.4 °F 24.8 °F 16% 29.84 in 10.0 mi ESE 3.5 mph - N/A   Clear
8:35 PM 75.2 °F 24.8 °F 15% 29.84 in 10.0 mi East 3.5 mph - N/A   Clear
8:55 PM 75.2 °F 24.8 °F 15% 29.83 in 10.0 mi ESE 6.9 mph - N/A   Clear
9:15 PM 73.4 °F 24.8 °F 16% 29.84 in 10.0 mi North 3.5 mph - N/A   Clear
9:35 PM 73.4 °F 23.0 °F 15% 29.84 in 10.0 mi Calm Calm - N/A   Clear
9:55 PM 71.6 °F 26.6 °F 19% 29.84 in 10.0 mi Calm Calm - N/A   Clear
10:15 PM 71.6 °F 24.8 °F 17% 29.84 in 10.0 mi Calm Calm - N/A   Clear
10:35 PM 71.6 °F 24.8 °F 17% 29.84 in 10.0 mi Calm Calm - N/A   Clear
10:55 PM 68.0 °F 24.8 °F 20% 29.83 in 10.0 mi SE 4.6 mph - N/A   Clear
11:15 PM 69.8 °F 24.8 °F 18% 29.83 in 10.0 mi Calm Calm - N/A   Clear
11:35 PM 68.0 °F 24.8 °F 20% 29.83 in 10.0 mi Calm Calm - N/A   Clear
11:55 PM 66.2 °F 24.8 °F 21% 29.83 in 10.0 mi Calm Calm - N/A   Clear